Weather History for Fort Leonard Wood, MO

Change the Weather History Date:

Thursday, November 25, 2010

  Actual Average Record
Temperature  
Mean Temperature 40 °F -  
Max Temperature 57 °F 51 °F 69 °F (2006)
Min Temperature 22 °F 37 °F 21 °F (2005)
Degree Days  
Heating Degree Days 26    
Moisture  
Dew Point 42 °F    
Average Humidity 98    
Maximum Humidity 100    
Minimum Humidity 86    
Precipitation  
Precipitation 1.39 in - - ()
Sea Level Pressure  
Sea Level Pressure 29.81 in    
Wind  
Wind Speed 6 mph (NW)    
Max Wind Speed 17 mph    
Max Gust Speed 23 mph    
Visibility 5 miles    
Events Rain , Snow , Thunderstorm    
Averages and records for this station are not official NWS values.
T = Trace of Precipitation, MM = Missing Value Source: NWS Daily Summary

Daily Weather History Graph

Daily Weather History Graph

Search for Another Location

Airport:

Trip Planner

Search our weather history database for the weather conditions in past years. The results will help you decide how hot, cold, wet, or windy it might be!

Date:

Astronomy

Nov. 25, 2010 Rise Set
Actual Time 6:59 AM CST 4:51 PM CST
Civil Twilight 6:30 AM CST 5:20 PM CST
Nautical Twilight 5:58 AM CST 5:52 PM CST
Astronomical Twilight 5:26 AM CST 6:23 PM CST
Moon 8:49 PM CST (11/25) 10:29 AM CST (11/25)
Length of Visible Light 10h 49m
Length of Day
9h 52m
Waning Gibbous, 82% of the Moon is Illuminated
Nov 25
Waning Gibbous
Nov 28
Last Quarter
Dec 5
New
Dec 13
First Quarter
Dec 21
Full

Hourly Weather History & Observations

Time (CST) Temp. Windchill Dew Point Humidity Pressure Visibility Wind Dir Wind Speed Gust Speed Precip Events Conditions
12:03 AM 57.2 °F - 57.2 °F 100% 29.66 in 4.0 mi Calm Calm - N/A Rain Light Rain
12:04 AM 57.2 °F - 57.2 °F 100% 29.66 in 3.0 mi NW 3.5 mph - N/A Rain Light Rain
12:05 AM 57.2 °F - 57.2 °F 100% 29.66 in 2.5 mi NW 3.5 mph - N/A Rain Light Rain
12:21 AM 57.2 °F - 57.2 °F 100% 29.66 in 1.8 mi Calm Calm - N/A Rain Rain
12:25 AM 57.2 °F - 57.2 °F 100% 29.66 in 2.0 mi Calm Calm - N/A Rain Rain
12:46 AM 57.2 °F - 57.2 °F 100% 29.66 in 1.8 mi Calm Calm - N/A Rain Heavy Rain
12:52 AM 57.2 °F - 57.2 °F 100% 29.67 in 1.5 mi Calm Calm - N/A Rain Heavy Rain
12:54 AM 57.2 °F - 57.2 °F 100% 29.67 in 1.8 mi Calm Calm - N/A Rain Heavy Rain
12:55 AM 56.5 °F - 56.5 °F 100% 29.67 in 1.8 mi Calm Calm - 0.36 in Rain Heavy Rain
12:57 AM 57.2 °F - 57.2 °F 100% 29.66 in 1.8 mi Calm Calm - N/A Rain Rain
1:10 AM 57.2 °F - 57.2 °F 100% 29.67 in 1.8 mi Calm Calm - N/A Rain Heavy Rain
1:11 AM 57.2 °F - 57.2 °F 100% 29.68 in 2.0 mi Calm Calm - N/A Rain Heavy Rain
1:13 AM 57.2 °F - 57.2 °F 100% 29.68 in 1.8 mi Calm Calm - N/A Rain Heavy Rain
1:15 AM 57.2 °F - 57.2 °F 100% 29.68 in 1.8 mi Variable 3.5 mph - N/A Rain Heavy Rain
1:19 AM 57.2 °F - 57.2 °F 100% 29.68 in 2.0 mi NNW 5.8 mph - N/A Rain Heavy Rain
1:22 AM 57.2 °F - 57.2 °F 100% 29.68 in 2.5 mi NNW 8.1 mph - N/A Rain Rain
1:25 AM 57.2 °F - 57.2 °F 100% 29.67 in 3.0 mi NNW 8.1 mph - N/A Rain Heavy Rain
1:28 AM 55.4 °F - 55.4 °F 100% 29.66 in 4.0 mi NNW 9.2 mph - N/A Rain , Thunderstorm Heavy Thunderstorms and Rain
1:43 AM 55.4 °F - 55.4 °F 100% 29.68 in 4.0 mi NW 8.1 mph - N/A Rain Rain
1:55 AM 54.5 °F - 54.5 °F 100% 29.68 in 3.0 mi NNW 8.1 mph - 0.31 in Rain Heavy Rain
2:11 AM 53.6 °F - 53.6 °F 100% 29.65 in 4.0 mi NNE 6.9 mph - N/A Rain Rain
2:38 AM 53.6 °F - 53.6 °F 100% 29.66 in 4.0 mi North 6.9 mph - N/A Rain Rain
2:46 AM 53.6 °F - 53.6 °F 100% 29.67 in 4.0 mi NNW 8.1 mph - N/A Rain Rain
2:55 AM 53.2 °F - 53.2 °F 100% 29.68 in 5.0 mi NNW 10.4 mph - 0.16 in Rain Light Rain
3:39 AM 51.8 °F - 51.8 °F 100% 29.70 in 5.0 mi North 9.2 mph - N/A Rain Rain
3:55 AM 50.4 °F - 50.4 °F 100% 29.71 in 8.0 mi NW 11.5 mph 18.4 mph 0.18 in Rain Rain
4:14 AM 48.2 °F - 48.2 °F 100% 29.71 in 9.0 mi NNW 11.5 mph 20.7 mph N/A Rain Light Rain
4:20 AM 48.2 °F - 48.2 °F 100% 29.71 in 7.0 mi NNW 13.8 mph - N/A   Overcast
4:23 AM 48.2 °F - 48.2 °F 100% 29.72 in 6.0 mi NW 12.7 mph - N/A   Overcast
4:33 AM 46.4 °F 40.4 °F 46.4 °F 100% 29.71 in 2.5 mi North 13.8 mph 18.4 mph N/A   Overcast
4:36 AM 46.4 °F 40.1 °F 46.4 °F 100% 29.71 in 2.0 mi NNW 15.0 mph - N/A   Overcast
4:39 AM 46.4 °F 40.7 °F 46.4 °F 100% 29.72 in 1.8 mi NNW 12.7 mph 18.4 mph N/A   Overcast
4:41 AM 46.4 °F 40.4 °F 46.4 °F 100% 29.72 in 1.5 mi NNW 13.8 mph - N/A   Overcast
4:48 AM 46.4 °F 39.8 °F 46.4 °F 100% 29.73 in 1.8 mi NNW 16.1 mph - N/A   Overcast
4:51 AM 46.4 °F 41.1 °F 46.4 °F 100% 29.73 in 2.0 mi NNW 11.5 mph - N/A   Overcast
4:55 AM 46.0 °F 39.9 °F 46.0 °F 100% 29.72 in 2.0 mi NNW 13.8 mph - 0.02 in   Overcast
5:01 AM 46.4 °F 40.7 °F 46.4 °F 100% 29.73 in 3.0 mi NNW 12.7 mph - N/A   Overcast
5:09 AM 46.4 °F 40.4 °F 46.4 °F 100% 29.73 in 4.0 mi NNW 13.8 mph 23.0 mph N/A   Overcast
5:10 AM 46.4 °F 39.5 °F 46.4 °F 100% 29.73 in 4.0 mi NNW 17.3 mph 23.0 mph N/A   Light Drizzle
5:20 AM 42.8 °F 35.1 °F 42.8 °F 100% 29.75 in 9.0 mi NW 16.1 mph 21.9 mph N/A   Overcast
5:26 AM 42.8 °F 36.2 °F 42.8 °F 100% 29.75 in 6.0 mi NW 12.7 mph - N/A   Overcast
5:55 AM 39.9 °F 32.1 °F 39.7 °F 99% 29.77 in 5.0 mi NW 13.8 mph 19.6 mph 0.00 in   Overcast
6:10 AM 39.2 °F 30.8 °F 39.2 °F 100% 29.79 in 3.0 mi NW 15.0 mph 20.7 mph N/A   Overcast
6:16 AM 39.2 °F 32.5 °F 37.4 °F 93% 29.80 in 3.0 mi NW 10.4 mph 20.7 mph N/A   Light Drizzle
6:55 AM 36.9 °F 29.1 °F 36.7 °F 99% 29.80 in 2.0 mi NNW 11.5 mph - 0.00 in   Light Drizzle
7:24 AM 35.6 °F 27.5 °F 35.6 °F 100% 29.83 in 2.0 mi NW 11.5 mph - N/A   Light Drizzle
7:55 AM 34.5 °F 26.7 °F 34.3 °F 99% 29.83 in 1.5 mi NNW 10.4 mph - 0.00 in   Light Drizzle
8:55 AM 33.6 °F 23.7 °F 33.3 °F 99% 29.86 in 3.0 mi NNW 15.0 mph 20.7 mph N/A   Overcast
9:06 AM 33.8 °F 24.3 °F 33.8 °F 100% 29.88 in 2.0 mi NW 13.8 mph 20.7 mph N/A   Light Drizzle
9:55 AM 32.4 °F 24.6 °F 32.2 °F 99% 29.91 in 2.0 mi NNW 9.2 mph 18.4 mph 0.01 in   Light Drizzle
10:16 AM 32.0 °F 24.2 °F 32.0 °F 100% 29.88 in 2.5 mi North 9.2 mph - N/A Rain Light Freezing Rain
10:28 AM 32.0 °F 24.2 °F 32.0 °F 100% 29.86 in 2.0 mi North 9.2 mph - N/A Rain Light Freezing Rain
10:51 AM 32.0 °F 22.1 °F 32.0 °F 100% 29.88 in 1.5 mi NNW 13.8 mph 18.4 mph N/A Rain Rain
10:55 AM 31.8 °F 22.8 °F 31.6 °F 99% 29.91 in 1.5 mi NW 11.5 mph 18.4 mph 0.15 in Rain Light Freezing Rain
11:08 AM 32.0 °F 23.0 °F 32.0 °F 100% 29.89 in 3.0 mi NW 11.5 mph - N/A Rain Light Rain
11:19 AM 32.0 °F 25.6 °F 32.0 °F 100% 29.88 in 3.0 mi NW 6.9 mph - N/A Rain Light Freezing Rain
11:28 AM 32.0 °F 27.5 °F 32.0 °F 100% 29.94 in 3.0 mi WNW 4.6 mph - N/A Rain Light Freezing Rain
11:39 AM 32.0 °F 25.6 °F 32.0 °F 100% 29.91 in 4.0 mi NW 6.9 mph - N/A Rain Light Freezing Rain
11:55 AM 31.3 °F 24.7 °F 31.1 °F 99% 29.89 in 5.0 mi NW 6.9 mph - 0.18 in Rain Light Freezing Rain
12:00 PM 32.0 °F 24.8 °F 32.0 °F 100% 29.87 in 6.0 mi NNW 8.1 mph - N/A Snow Light Snow
12:06 PM 32.0 °F 24.8 °F 30.2 °F 93% 29.91 in 3.0 mi WNW 8.1 mph - N/A Snow Light Snow
12:18 PM 30.2 °F 21.9 °F 30.2 °F 100% 29.91 in 8.0 mi WNW 9.2 mph - N/A Snow Light Snow
12:33 PM 30.2 °F 21.9 °F 30.2 °F 100% 29.92 in 3.0 mi NW 9.2 mph - N/A Snow Light Snow
12:52 PM 30.2 °F 24.3 °F 30.2 °F 100% 29.94 in 7.0 mi WNW 5.8 mph - N/A Snow Light Snow
12:55 PM 30.0 °F 24.1 °F 29.8 °F 99% 29.94 in 9.0 mi Variable 5.8 mph - 0.02 in Snow Light Snow
1:07 PM 30.2 °F 22.6 °F 30.2 °F 100% 29.93 in 10.0 mi NW 8.1 mph - N/A   Overcast
1:19 PM 30.2 °F 21.9 °F 28.4 °F 93% 29.93 in 10.0 mi NW 9.2 mph - N/A   Overcast
1:26 PM 30.2 °F 21.3 °F 28.4 °F 93% 29.91 in 10.0 mi NW 10.4 mph - N/A   Mostly Cloudy
1:55 PM 29.3 °F 24.3 °F 28.0 °F 95% 29.92 in 10.0 mi NW 4.6 mph - 0.00 in   Scattered Clouds
2:55 PM 28.9 °F 21.1 °F 25.3 °F 86% 29.97 in 10.0 mi WNW 8.1 mph - N/A   Mostly Cloudy
3:55 PM 28.8 °F 21.7 °F 26.8 °F 92% 29.97 in 10.0 mi NW 6.9 mph - N/A   Overcast
4:55 PM 28.4 °F 24.6 °F 25.9 °F 90% 30.01 in 10.0 mi Variable 3.5 mph - N/A   Mostly Cloudy
5:55 PM 27.9 °F 24.0 °F 24.8 °F 88% 30.04 in 10.0 mi WNW 3.5 mph - N/A   Overcast
6:55 PM 27.5 °F - 24.3 °F 88% 30.06 in 10.0 mi Calm Calm - N/A   Overcast
7:55 PM 26.1 °F 21.9 °F 23.4 °F 90% 30.06 in 10.0 mi Variable 3.5 mph - N/A   Clear
8:55 PM 24.4 °F 20.1 °F 22.1 °F 91% 30.10 in 10.0 mi West 3.5 mph - N/A   Clear
9:55 PM 23.0 °F - 21.0 °F 92% 30.12 in 10.0 mi Calm Calm - N/A   Clear
10:55 PM 22.3 °F 17.6 °F 20.3 °F 92% 30.13 in 10.0 mi SW 3.5 mph - N/A   Clear
11:55 PM 22.6 °F - 19.8 °F 89% 30.13 in 10.0 mi Calm Calm - N/A   Clear